| time (UTC) | temp C | wind direction | speed KPH | gust KPH | rain 1hr cm | rain 24hr cm | rain mn cm | humidity % | barometer mb |
| 20260507174523 | 15 | 5 | 1.6 | 8.0 | 0.00 | 0.00 | 0.00 | 62 | 1012.8 |
| 20260507173027 | 16 | 66 | 4.8 | 11.3 | 0.00 | 0.00 | 0.00 | 58 | 1012.8 |
| 20260507171527 | 16 | 43 | 3.2 | 14.5 | 0.00 | 0.00 | 0.00 | 58 | 1012.8 |
| 20260507170029 | 17 | 23 | 6.4 | 12.9 | 0.00 | 0.00 | 0.00 | 57 | 1012.7 |
| 20260507164516 | 17 | 39 | 3.2 | 16.1 | 0.00 | 0.00 | 0.00 | 59 | 1012.8 |
| 20260507163023 | 16 | 41 | 3.2 | 11.3 | 0.00 | 0.00 | 0.00 | 58 | 1013.0 |
| 20260507161523 | 16 | 40 | 6.4 | 12.9 | 0.00 | 0.03 | 0.00 | 61 | 1013.1 |
| 20260507160027 | 16 | 68 | 3.2 | 12.9 | 0.00 | 0.08 | 0.00 | 63 | 1013.2 |
| 20260507154513 | 17 | 98 | 8.0 | 16.1 | 0.00 | 0.15 | 0.00 | 62 | 1013.1 |
| 20260507153018 | 17 | 2 | 4.8 | 9.7 | 0.00 | 0.15 | 0.00 | 55 | 1013.1 |
| 20260507151524 | 17 | 27 | 4.8 | 12.9 | 0.00 | 0.18 | 0.00 | 56 | 1013.2 |
| 20260507150026 | 16 | 84 | 3.2 | 11.3 | 0.00 | 0.18 | 0.00 | 59 | 1013.3 |
| 20260507144525 | 16 | 30 | 4.8 | 11.3 | 0.00 | 0.20 | 0.00 | 63 | 1013.5 |
| 20260507143016 | 16 | 8 | 1.6 | 11.3 | 0.00 | 0.20 | 0.00 | 64 | 1013.5 |
| 20260507141522 | 16 | 89 | 3.2 | 12.9 | 0.00 | 0.20 | 0.00 | 60 | 1013.6 |
| 20260507140033 | 17 | 72 | 4.8 | 14.5 | 0.00 | 0.20 | 0.00 | 61 | 1013.8 |
| 20260507134528 | 16 | 126 | 3.2 | 11.3 | 0.00 | 0.20 | 0.00 | 60 | 1013.9 |
| 20260507133028 | 16 | 20 | 3.2 | 14.5 | 0.00 | 0.20 | 0.00 | 60 | 1013.9 |
| 20260507131504 | 16 | 65 | 6.4 | 11.3 | 0.00 | 0.20 | 0.00 | 62 | 1014.0 |
| 20260507130004 | 15 | 50 | 3.2 | 11.3 | 0.00 | 0.20 | 0.00 | 62 | 1014.2 |
| 20260507124508 | 15 | 43 | 4.8 | 8.0 | 0.00 | 0.20 | 0.00 | 66 | 1014.2 |
| 20260507123015 | 15 | 70 | 3.2 | 8.0 | 0.00 | 0.20 | 0.00 | 66 | 1014.3 |
| 20260507121503 | 15 | 14 | 1.6 | 8.0 | 0.00 | 0.20 | 0.00 | 68 | 1014.4 |
| 20260507120003 | 15 | 51 | 1.6 | 9.7 | 0.00 | 0.20 | 0.00 | 67 | 1014.4 |
| 20260507114504 | 15 | 47 | 3.2 | 8.0 | 0.00 | 0.20 | 0.00 | 66 | 1014.4 |
| 20260507113010 | 15 | 347 | 4.8 | 8.0 | 0.00 | 0.20 | 0.00 | 65 | 1014.3 |
| 20260507111517 | 15 | 6 | 1.6 | 11.3 | 0.00 | 0.20 | 0.00 | 65 | 1014.6 |
| 20260507110004 | 16 | 118 | 3.2 | 11.3 | 0.00 | 0.20 | 0.00 | 62 | 1014.7 |
| 20260507104503 | 16 | 96 | 4.8 | 11.3 | 0.00 | 0.20 | 0.00 | 67 | 1014.7 |
| 20260507103008 | 15 | 171 | 8.0 | 12.9 | 0.00 | 0.20 | 0.00 | 67 | 1014.7 |
| 20260507101511 | 15 | 127 | 3.2 | 12.9 | 0.00 | 0.20 | 0.00 | 69 | 1014.8 |
| 20260507100016 | 15 | 129 | 6.4 | 14.5 | 0.00 | 0.20 | 0.00 | 74 | 1014.6 |
| 20260507094506 | 15 | 75 | 6.4 | 9.7 | 0.00 | 0.20 | 0.00 | 70 | 1014.7 |
| 20260507093010 | 14 | 102 | 1.6 | 4.8 | 0.00 | 0.20 | 0.00 | 73 | 1014.6 |
| 20260507091508 | 13 | 89 | 4.8 | 8.0 | 0.00 | 0.20 | 0.00 | 76 | 1014.6 |
| 20260507090012 | 13 | 28 | 1.6 | 6.4 | 0.00 | 0.20 | 0.00 | 75 | 1014.6 |
| 20260507084536 | 13 | 77 | 3.2 | 8.0 | 0.00 | 0.20 | 0.00 | 74 | 1014.7 |
| 20260507083004 | 13 | 92 | 0.0 | 4.8 | 0.00 | 0.20 | 0.00 | 77 | 1014.6 |
| 20260507081510 | 13 | 108 | 6.4 | 9.7 | 0.00 | 0.20 | 0.00 | 77 | 1014.4 |
| 20260507080013 | 13 | 150 | 6.4 | 9.7 | 0.00 | 0.20 | 0.00 | 77 | 1014.3 |
| 20260507074518 | 13 | 103 | 4.8 | 8.0 | 0.00 | 0.20 | 0.00 | 80 | 1014.3 |
| 20260507073022 | 12 | 105 | 4.8 | 8.0 | 0.00 | 0.20 | 0.00 | 85 | 1014.3 |
| 20260507071506 | 11 | 102 | 3.2 | 6.4 | 0.00 | 0.20 | 0.00 | 91 | 1014.2 |
| 20260507070012 | 10 | 20 | 1.6 | 3.2 | 0.00 | 0.20 | 0.00 | 93 | 1014.2 |
| 20260507064515 | 10 | 20 | 0.0 | 0.0 | 0.00 | 0.20 | 0.00 | 96 | 1014.3 |
| 20260507063020 | 9 | 20 | 0.0 | 0.0 | 0.00 | 0.20 | 0.00 | 96 | 1014.1 |
| 20260507061523 | 8 | 20 | 0.0 | 0.0 | 0.00 | 0.20 | 0.00 | 96 | 1013.9 |
| 20260507060012 | 8 | 20 | 0.0 | 0.0 | 0.00 | 0.20 | 0.00 | 96 | 1014.0 |
| 20260507054511 | 8 | 20 | 0.0 | 0.0 | 0.00 | 0.20 | 0.00 | 96 | 1013.9 |
| 20260507053016 | 7 | 20 | 0.0 | 0.0 | 0.00 | 0.20 | 0.00 | 96 | 1013.7 |
| 20260507051522 | 7 | 20 | 0.0 | 0.0 | 0.00 | 0.20 | 0.00 | 96 | 1013.6 |
| 20260507050039 | 7 | 20 | 0.0 | 0.0 | 0.00 | 0.20 | 0.00 | 95 | 1013.4 |
| 20260507044527 | 7 | 20 | 0.0 | 0.0 | 0.00 | 0.20 | 0.00 | 95 | 1013.3 |
| 20260507043014 | 7 | 20 | 0.0 | 0.0 | 0.00 | 0.20 | 0.00 | 95 | 1013.3 |
| 20260507041504 | 7 | 20 | 0.0 | 0.0 | 0.00 | 0.20 | 0.00 | 95 | 1013.3 |
| 20260507040004 | 7 | 20 | 0.0 | 0.0 | 0.00 | 0.20 | 0.00 | 95 | 1013.2 |
| 20260507034507 | 7 | 20 | 0.0 | 0.0 | 0.00 | 0.20 | 0.00 | 94 | 1013.2 |
| 20260507033009 | 7 | 20 | 0.0 | 0.0 | 0.00 | 0.20 | 0.00 | 95 | 1013.3 |
| 20260507031508 | 8 | 20 | 0.0 | 0.0 | 0.00 | 0.20 | 0.00 | 95 | 1013.3 |
| 20260507030004 | 8 | 20 | 0.0 | 0.0 | 0.00 | 0.20 | 0.00 | 95 | 1013.2 |
| 20260507024506 | 8 | 20 | 0.0 | 0.0 | 0.00 | 0.20 | 0.00 | 95 | 1013.1 |
| 20260507023008 | 8 | 20 | 0.0 | 0.0 | 0.00 | 0.20 | 0.00 | 94 | 1013.2 |
| 20260507021512 | 8 | 20 | 0.0 | 0.0 | 0.00 | 0.20 | 0.00 | 95 | 1013.2 |
| 20260507020013 | 8 | 20 | 0.0 | 0.0 | 0.00 | 0.20 | 0.00 | 94 | 1012.9 |
| 20260507014503 | 8 | 20 | 0.0 | 1.6 | 0.00 | 0.20 | 0.00 | 94 | 1012.9 |
| 20260507013007 | 8 | 20 | 0.0 | 0.0 | 0.00 | 0.20 | 0.00 | 94 | 1012.9 |
| 20260507011510 | 8 | 20 | 0.0 | 0.0 | 0.00 | 0.20 | 0.00 | 94 | 1013.0 |
| 20260507010023 | 8 | 20 | 0.0 | 0.0 | 0.00 | 0.20 | 0.00 | 94 | 1013.0 |
| 20260507004518 | 8 | 20 | 0.0 | 0.0 | 0.00 | 0.20 | 0.00 | 94 | 1013.0 |
| 20260507003004 | 8 | 20 | 0.0 | 0.0 | 0.00 | 0.20 | 0.00 | 93 | 1013.1 |
| 20260507001509 | 9 | 20 | 0.0 | 0.0 | 0.00 | 0.20 | 0.00 | 94 | 1013.1 |
| 20260507000012 | 9 | 20 | 0.0 | 0.0 | 0.00 | 0.20 | 0.00 | 94 | 1013.0 |
| 20260506234520 | 9 | 20 | 0.0 | 0.0 | 0.00 | 0.20 | 0.00 | 93 | 1013.0 |
| 20260506233020 | 9 | 20 | 0.0 | 0.0 | 0.00 | 0.20 | 0.00 | 93 | 1013.0 |
| 20260506231508 | 9 | 20 | 0.0 | 0.0 | 0.00 | 0.20 | 0.00 | 94 | 1012.9 |
| 20260506230010 | 9 | 20 | 0.0 | 0.0 | 0.00 | 0.20 | 0.00 | 93 | 1012.8 |
| 20260506224515 | 9 | 20 | 0.0 | 0.0 | 0.00 | 0.20 | 0.00 | 93 | 1012.8 |
| 20260506223022 | 9 | 20 | 0.0 | 0.0 | 0.00 | 0.20 | 0.00 | 93 | 1012.7 |
| 20260506221524 | 9 | 20 | 0.0 | 0.0 | 0.00 | 0.20 | 0.00 | 93 | 1012.7 |
| 20260506220008 | 9 | 20 | 0.0 | 4.8 | 0.00 | 0.20 | 0.00 | 93 | 1012.4 |
| 20260506214514 | 10 | 20 | 1.6 | 6.4 | 0.00 | 0.20 | 0.20 | 93 | 1012.4 |
| 20260506213019 | 10 | 20 | 1.6 | 8.0 | 0.00 | 0.20 | 0.20 | 92 | 1012.3 |
| 20260506211537 | 10 | 7 | 0.0 | 3.2 | 0.00 | 0.20 | 0.20 | 93 | 1012.3 |
| 20260506210032 | 10 | 7 | 1.6 | 3.2 | 0.00 | 0.20 | 0.20 | 93 | 1012.3 |
| 20260506204515 | 10 | 7 | 1.6 | 6.4 | 0.00 | 0.20 | 0.20 | 93 | 1012.2 |
| 20260506203016 | 10 | 7 | 0.0 | 0.0 | 0.00 | 0.20 | 0.20 | 94 | 1012.0 |
| 20260506201527 | 10 | 7 | 0.0 | 0.0 | 0.00 | 0.20 | 0.20 | 94 | 1012.1 |
| 20260506200029 | 10 | 7 | 0.0 | 0.0 | 0.00 | 0.20 | 0.20 | 93 | 1011.8 |
| 20260506194527 | 10 | 7 | 0.0 | 0.0 | 0.00 | 0.20 | 0.20 | 93 | 1011.6 |
| 20260506193012 | 10 | 7 | 0.0 | 0.0 | 0.00 | 0.20 | 0.20 | 92 | 1011.4 |
| 20260506191519 | 10 | 7 | 0.0 | 0.0 | 0.00 | 0.20 | 0.20 | 92 | 1011.3 |
| 20260506190005 | 10 | 7 | 0.0 | 0.0 | 0.00 | 0.20 | 0.20 | 91 | 1011.2 |
| 20260506184507 | 11 | 7 | 0.0 | 0.0 | 0.00 | 0.20 | 0.20 | 89 | 1010.9 |
| 20260506183010 | 11 | 7 | 0.0 | 0.0 | 0.00 | 0.20 | 0.20 | 88 | 1010.8 |
| 20260506181533 | 11 | 7 | 0.0 | 3.2 | 0.00 | 0.20 | 0.20 | 88 | 1010.7 |
| 20260506180019 | 11 | 7 | 0.0 | 3.2 | 0.00 | 0.20 | 0.20 | 88 | 1010.6 |